Location: Hoyos del Collado
(40.3594°N, 5.2003°W)
Time: 11:18:42
(UTC+00:00)

Cosmos 540 Rocket - Pass Details

Date: 18 April 2024
Orbit: 737 x 751 km, 74.1° (Epoch: 21 May)

Event Time Altitude Azimuth Distance (km) Brightness Sun altitude
Exits shadow 21:18:48 36° 62° (ENE) 1,168 4.2 -23.6°
Drops below altitude 10° 21:22:13 10° 32° (NNE) 2,255 6.0 -24.0°
Sets 21:24:40 0° 26° (NNE) 3,185 6.9 -24.4°
